Location: Marcé
(47.5801°N, 0.3280°W)
Time: 08:22:46
(UTC+01:00)

Vanguard 1 - Pass Details

Date: 30 November 2021
Orbit: 652 x 3830 km, 34.2° (Epoch: 16 January)

Event Time Altitude Azimuth Distance (km) Brightness Sun altitude
Exits shadow 07:23:09 - 271° (W) 6,552 13.7 -10.5°
Reaches altitude 10° 07:24:46 10° 269° (W) 6,195 13.5 -10.3°
Maximum altitude 07:38:56 30° 217° (SW) 3,534 12.8 -8.0°
Drops below altitude 10° 07:47:58 10° 161° (SSE) 3,891 13.8 -6.7°
Sets 07:50:58 0° 150° (SSE) 4,505 14.5 -6.2°
